Reflectivity
-20 -20 -20 -20 -20 -20 -20 -17 11 12 -9 7 12 -6 0 -16 -12 -19 -20 -20 -20 -20 -20 -20 -20 -20 -20 -20 -20 -20 -20 -20 -20 -20 -20 -20 -20 -20 5 -4 2 -12 -5 -20
-20 -20 -20 -20 -20 -20 -19 -20 -0 5 9 12 9 12 0 -3 -19 -17 -15 -18 -20 -20 -20 -20 -20 -20 -20 -20 -20 -20 -20 -20 -20 -20 -20 -20 -20 17 -19 -20 -20 -20 -15 12
-20 -20 -20 -20 3 -20 -20 -20 -12 -2 8 0 -2 3 10 4 -7 -2 -1 -3 -20 -20 -20 -20 -20 -20 -20 -20 -20 -20 -20 -20 -20 -20 -20 -20 0 -7 4 -20 -17 -2 5 -20
-20 -20 -20 -20 -20 -10 -20 -14 -11 -20 -7 -4 -4 5 -14 -3 14 1 -3 2 4 -19 -20 -20 -20 -20 -20 -20 -20 -20 -20 -20 -20 -20 -18 -20 -16 16 8 0 2 -11 7 -20
-20 -20 -18 -14 -20 -20 -20 -20 -20 -17 -20 -20 -20 -20 -20 -20 -14 4 1 -14 -13 3 -20 -20 -20 -20 -20 -20 -20 -20 -20 -20 -20 -20 -10 20 -7 -12 21 9 5 18 -7 -1
-20 -20 -20 -20 -20 -20 -20 -20 -20 -20 -20 -20 -20 -20 -20 -20 -17 -16 7 10 7 -16 -15 -19 -20 -20 -20 -20 -20 -20 -20 -20 -20 -20 -20 8 26 26 9 27 -17 4 -10 -20
-20 -20 -20 -20 -20 -20 -20 -20 -20 -20 -20 -20 -20 -20 -20 -20 -20 -20 -20 -20 -20 -14 -5 10 -16 -20 -20 -20 -20 -20 -20 -20 -20 -20 -20 -20 -13 -1 4 9 -12 -18 -20 -20
-20 -20 -20 -20 -20 -20 -20 -20 -20 -20 -20 -20 -20 -20 -20 -20 -20 -20 -20 -20 -20 -20 -19 -20 -20 -20 -20 -20 -20 -20 -20 -20 -20 -20 -20 -20 -20 -10 -16 13 5 5 -20 -13
-20 -20 -20 -20 -20 -20 -20 -20 -20 -20 -20 -20 -20 -20 -20 -20 -20 -20 -20 -20 -20 -20 -20 -20 -20 -20 -17 -7 -20 -20 -20 -20 -20 -20 -20 -20 -20 -20 -20 6 -9 6 23 17
-20 -20 -20 -20 -20 -20 -20 -20 -20 -20 -20 -20 -20 -20 -20 -20 -20 -20 -20 -20 -20 -20 -20 -20 -20 -20 -20 1 6 -20 -20 -20 -20 -20 -20 -20 -20 -20 -20 -20 -17 9 23 21
-20 -20 -20 -20 -20 -20 -20 -20 -20 -20 -20 -20 -20 -20 -20 -20 -20 -20 -20 -20 -20 -20 -20 -20 -20 -17 -7 -20 -20 -20 -20 -20 -20 -20 -20 -20 -20 -20 -20 -20 2 8 15 19
-20 -20 -20 -20 -20 -20 -20 -20 -20 -20 -20 -20 -20 -20 -20 -20 -20 -20 -20 -20 -20 -20 -20 -20 -20 -20 -20 -6 -20 -20 -20 -20 -20 -20 -20 -20 -20 -20 -20 -20 8 2 4 22
-20 -20 -20 -20 -20 -20 -20 -20 -20 -20 -20 -20 -20 -20 -20 -20 -20 -11 -20 -20 -20 -20 -20 -20 -20 -20 -20 -20 -20 -20 -20 -20 -20 -20 -20 -20 -20 -20 -20 -20 -20 -20 -5 10
-20 -20 -20 -20 -20 -20 -20 -20 -20 -20 -20 -20 -20 -20 -20 -20 -20 -20 -20 -20 -20 -20 -20 -20 -20 -20 -20 -20 -20 -20 -20 -20 -20 -16 -20 -20 -17 -20 -20 -20 -20 -20 -20 -15
-20 -20 -20 -20 -20 -20 -20 -20 -20 -20 -20 -20 -20 -20 -20 -20 -20 -20 -20 -20 -20 -20 -20 -20 -20 -20 -20 -20 -20 -20 -20 -20 -20 -3 -20 -15 -20 -20 -20 -20 -20 -20 -20 -20
-20 -20 -20 -20 -20 -20 -20 -20 -20 -20 -20 -20 -20 -20 -20 -20 -20 -20 -20 -20 -20 -20 -20 -20 -20 -20 -20 -20 -20 -20 -20 -20 -4 -20 -20 -20 -20 -20 -20 -20 -20 -20 -20 -20
-20 -20 -20 -20 -20 -20 -20 -20 -20 -20 -20 -20 -20 -20 -20 -20 -20 -20 -20 -20 -20 -20 -20 -20 -20 -20 -20 -20 -20 -20 -20 -20 -20 -20 -20 -20 -20 -20 -20 -20 -20 -20 -20 -20
-20 -20 -20 -20 -20 -20 -20 -20 -20 -20 -20 -20 -20 -20 -20 -20 -20 -20 -20 -20 -20 -20 -20 -20 -20 -20 -20 -20 -20 -20 -20 -20 -20 -20 -20 -20 -10 -20 -20 -20 -20 -20 -20 -20
-20 -20 -20 -20 -20 -20 -20 -20 -20 -20 -20 -20 -20 -20 -20 -20 -20 -20 -20 -20 -20 -20 -20 -20 -20 -11 -20 -20 -10 -20 -20 -20 -20 -20 -20 -6 -20 -20 -20 -20 -20 -20 -20 -20
-20 -20 -20 -20 -20 -20 -20 -20 -20 -20 -20 -20 -20 -20 -20 -20 -20 -20 -20 -20 -20 -20 -20 -20 -20 -20 -20 -20 -18 -20 -20 -20 -20 -20 -20 -20 -20 -20 -20 -20 -20 -20 -20 -20
-20 -20 -20 -20 -20 -20 -20 -20 -20 -20 -20 -20 -20 -20 -20 -20 -20 -20 -20 -20 -20 -20 -18 -3 -20 -20 -20 -20 -20 -20 -20 -20 -20 -20 -20 -20 -20 -20 -20 -20 -20 -20 -20 -20
-20 -20 -20 -20 -20 -20 -20 -20 -20 -20 -20 -20 -20 -20 -20 -20 -20 -20 -20 -20 -20 -20 -12 -20 -20 -20 -14 8 -14 -20 -20 -20 -20 -20 -20 -20 -20 -20 -20 -20 -20 -20 -20 -20
-20 -20 -20 -20 -20 -20 -20 -20 -20 -20 -20 -20 -20 -20 -20 -20 -20 -14 -20 -20 -20 -20 -7 -20 -12 7 8 -18 -20 -20 -20 -20 -20 -20 -20 -20 -20 -20 -20 -20 -20 -20 -20 -20
-20 -20 -20 -20 -20 -20 -20 -20 -20 -20 -20 -20 -20 -20 -20 -20 -20 -20 -20 -19 2 -0 -20 -9 -18 -1 12 -20 -20 -20 -20 -20 -20 -20 -20 -20 -20 -20 -20 -20 -20 -20 -20 -20
-20 -20 -20 -20 -20 -20 -20 -20 -20 -20 -20 -20 -20 -20 -20 -20 -20 -20 -20 -20 -20 -8 -20 -2 6 9 5 -20 -20 -20 -20 -20 -20 -20 -20 -20 -20 -20 -20 -20 -20 -17 -20 -20
-20 -20 -20 -20 -20 -20 -20 -20 -20 -4 -20 -20 -20 -20 -20 -20 -20 -20 -20 -20 -16 -20 -20 -20 -20 -20 -20 -20 -20 -20 -20 -20 -20 -20 -11 -20 -20 -20 -20 -20 -20 -20 -20 -20
-20 -20 -20 -20 -20 -20 -20 -4 -20 -20 -15 -20 -20 -20 -20 -20 -20 -16 -7 -20 -20 -20 -20 -20 -20 -20 -20 -20 -5 -18 -20 -20 -13 -20 -20 -20 -20 -20 -20 -20 -20 -20 -20 -20
Wind_Speed
10 11 17 17 18 18 22 6 4 10 11 8 8 10 10 11 11 13 13 14 14 13 11 11 12 12 12 12 12 12 11 10 10 10 10 11 11 12 9 8 5 6 6 5
9 10 20 17 19 20 14 12 10 12 12 5 7 7 10 12 12 12 12 13 14 14 14 14 13 12 13 13 13 12 11 10 12 11 11 11 12 11 10 9 5 6 8 9
2 5 7 9 12 12 13 14 7 8 4 8 8 9 10 10 12 12 11 12 13 13 13 13 13 13 13 13 12 12 11 12 12 12 12 12 12 11 12 10 10 6 7 8
2 4 7 3 6 9 15 12 11 9 9 8 7 2 8 9 9 10 10 11 11 11 11 11 11 12 11 11 11 11 11 12 13 12 12 12 12 11 11 10 10 9 7 7
5 3 2 2 5 3 4 5 7 7 8 7 10 5 5 11 10 8 8 8 9 9 10 10 10 11 11 10 11 11 12 12 13 14 13 12 12 12 11 9 10 8 8 7
3 5 2 4 6 5 2 4 5 6 6 9 12 2 2 10 9 9 9 8 8 10 10 9 10 11 10 10 11 12 12 13 13 12 12 12 11 11 10 9 10 8 9 8
4 3 3 3 8 3 2 3 8 7 6 6 3 3 10 9 9 8 7 8 8 8 7 9 9 9 10 10 11 13 13 12 12 12 12 11 10 9 10 9 8 8 9 9
2 4 3 4 4 7 4 3 3 5 5 5 5 7 7 9 9 10 10 10 10 8 8 8 10 9 10 10 12 13 13 12 11 11 10 10 11 10 10 7 7 7 7 9
4 1 1 2 5 3 4 4 3 1 5 5 7 7 7 7 6 7 7 8 8 8 8 7 8 10 11 11 12 13 12 12 11 10 10 10 10 10 8 8 5 5 4 6
4 2 2 2 2 2 5 5 4 4 4 4 6 6 7 7 5 6 7 7 7 7 7 8 8 10 8 10 11 12 12 12 11 10 12 10 8 7 7 7 7 5 5 6
4 5 5 3 4 3 3 2 3 4 5 6 3 7 4 5 5 5 6 5 6 6 7 8 10 10 9 10 11 11 11 10 10 9 10 9 9 8 8 8 9 8 7 5
5 6 5 7 4 2 3 5 5 3 5 4 4 7 3 7 5 4 7 5 6 7 7 8 9 9 9 9 10 10 10 10 9 9 8 8 9 10 13 15 17 18 16 10
4 5 6 5 6 3 3 5 4 5 6 6 5 5 3 4 4 7 3 6 5 6 6 7 7 8 8 8 9 11 10 11 8 10 8 10 10 10 12 12 16 14 15 14
4 3 4 2 4 4 5 7 7 5 6 7 6 3 3 5 5 6 7 7 5 4 7 6 6 7 7 7 8 8 8 15 8 7 7 8 9 9 9 10 11 9 10 13
8 9 6 2 4 6 3 2 4 6 5 6 5 6 5 6 6 7 6 7 5 5 7 5 6 8 7 5 6 7 7 7 7 6 7 9 8 9 8 10 9 9 9 9
3 4 3 5 8 7 4 5 4 6 5 5 6 6 7 6 6 6 6 4 1 5 6 5 7 6 7 5 6 5 5 15 12 6 6 7 7 8 8 8 8 8 8 9
2 5 1 4 5 4 6 7 7 8 8 7 8 7 6 6 5 5 5 5 6 7 7 6 7 6 6 5 5 4 4 5 13 5 6 6 7 7 8 8 8 7 7 9
7 6 6 7 7 8 9 7 6 7 7 8 7 6 6 6 6 6 5 5 4 5 6 7 6 7 5 5 4 3 3 4 5 5 6 6 7 6 7 8 8 8 8 8
8 10 8 8 8 7 7 7 7 6 6 5 5 6 6 6 5 5 5 4 4 5 6 5 11 5 4 6 5 2 2 5 5 5 6 9 6 6 6 7 8 8 8 7
7 7 7 7 5 5 6 6 6 6 6 5 5 5 5 5 5 5 5 6 5 5 7 7 6 5 5 6 9 1 1 3 3 4 6 6 6 6 6 10 9 8 8 7
8 7 7 6 6 5 5 5 5 6 6 5 5 5 5 6 5 4 4 4 5 7 9 11 3 4 3 7 1 1 2 3 2 2 4 4 6 6 7 7 7 7 7 7
5 5 5 5 5 5 5 5 5 5 5 5 5 5 5 6 6 5 5 6 5 12 6 3 4 9 9 12 4 2 3 2 2 2 2 3 3 4 5 6 6 6 6 6
5 4 5 4 3 5 5 5 3 4 5 5 6 6 5 5 4 5 5 5 4 9 7 2 10 14 10 4 3 2 3 3 3 2 2 3 2 3 4 5 5 6 6 6
4 3 2 3 4 3 4 3 4 5 5 5 5 5 4 4 4 3 5 11 15 13 8 6 9 16 9 2 3 3 4 4 3 2 2 6 2 2 3 4 5 6 4 6
4 3 2 3 4 2 3 4 5 5 5 6 6 5 6 4 4 5 4 5 13 11 6 10 14 14 1 3 3 3 4 3 3 3 2 2 2 2 3 3 3 5 2 4
4 3 3 3 3 3 3 4 3 2 4 4 4 6 5 4 4 6 4 7 4 10 5 4 4 5 4 2 3 4 4 4 4 2 4 3 2 2 2 3 3 3 3 3
3 8 1 3 3 3 4 4 4 4 4 5 7 7 3 5 6 6 7 5 5 5 5 5 4 7 6 5 5 4 4 3 7 4 5 3 3 3 3 3 3 3 3 3
Wind_Direction
116 105 73 48 32 31 49 35 75 129 81 82 73 65 57 54 47 40 30 23 19 15 7 3 0 356 353 346 342 340 346 348 349 351 349 345 338 329 320 295 211 210 199 206
125 108 76 56 40 33 29 29 61 73 63 62 83 67 57 50 44 38 28 21 13 10 3 360 356 352 346 343 340 338 346 345 345 349 350 341 336 324 331 320 238 207 209 206
204 273 276 34 26 54 49 32 34 53 35 24 61 64 44 44 40 31 19 15 13 8 360 353 350 345 344 337 338 344 343 345 346 344 342 335 328 332 328 333 325 226 207 201
291 356 53 169 38 88 82 50 35 40 19 11 348 83 64 31 34 24 15 2 6 356 353 350 343 344 336 341 343 345 345 342 340 337 335 331 327 324 331 328 322 324 239 214
96 43 145 117 30 4 9 78 39 18 4 346 326 260 75 23 11 11 10 359 355 352 350 343 341 341 336 347 344 348 343 337 333 330 325 323 325 321 310 316 326 311 310 233
51 89 59 250 328 333 267 147 24 21 11 354 350 109 67 358 356 354 354 354 344 354 348 341 339 339 343 346 346 344 338 329 323 319 315 311 307 305 302 306 309 309 309 280
17 94 301 266 309 306 311 348 349 2 359 360 21 317 306 330 338 345 345 339 344 359 346 337 331 335 347 344 345 333 329 322 323 322 316 306 308 305 299 297 308 315 320 302
353 60 348 13 355 106 227 338 340 339 334 323 310 307 318 321 338 339 336 337 343 348 339 339 335 338 344 343 330 331 328 321 325 324 319 317 311 309 307 293 300 318 331 314
154 161 318 345 165 241 157 176 271 228 293 303 295 303 308 311 310 316 322 331 335 337 330 328 329 343 336 331 335 329 327 322 326 327 317 327 318 314 315 318 307 313 318 306
38 290 276 257 303 230 176 204 230 232 240 282 271 287 295 301 306 314 324 318 328 325 327 323 332 332 329 332 331 324 328 327 333 329 335 329 323 321 321 319 306 308 315 306
269 298 327 274 232 207 280 261 245 262 227 230 226 277 264 281 287 279 292 300 317 305 318 321 323 330 328 337 326 336 329 331 334 335 336 328 324 312 313 304 305 314 294 299
231 230 166 244 257 197 233 245 239 217 294 261 206 253 235 276 269 277 295 303 316 311 318 319 320 318 322 329 332 329 332 337 328 333 327 336 327 319 314 312 314 311 304 293
222 201 211 257 257 226 211 249 233 216 226 268 266 222 210 252 270 277 274 280 268 273 287 298 308 311 312 325 329 336 334 329 328 329 336 333 327 328 324 324 322 323 320 309
231 156 321 223 239 225 228 266 290 266 243 224 239 257 236 225 295 283 281 262 272 275 284 295 302 298 303 309 312 313 317 330 324 313 334 324 329 324 324 324 323 323 324 318
242 216 235 261 282 273 223 288 297 286 276 287 225 228 193 249 260 260 261 269 277 281 279 291 302 292 297 305 311 308 322 315 311 334 332 335 329 327 323 323 327 317 322 343
297 225 246 233 272 276 255 276 234 269 255 257 250 254 248 223 234 248 263 263 221 276 279 281 285 270 286 292 299 290 298 334 346 344 325 333 329 331 328 326 328 325 329 333
309 315 290 267 241 259 238 245 238 258 269 264 260 260 258 255 257 256 253 245 226 236 247 253 261 274 277 275 267 276 303 321 344 329 326 327 321 340 329 328 329 327 323 322
230 249 247 248 270 280 286 272 263 255 254 261 267 268 266 260 253 263 264 268 271 276 259 254 251 263 259 290 277 275 271 304 318 327 327 319 340 340 334 328 325 323 325 329
225 245 252 251 249 254 261 272 279 281 286 282 277 270 268 264 265 268 277 273 270 276 275 263 287 310 267 285 315 263 328 317 325 333 330 338 336 335 339 331 328 331 331 343
251 240 246 255 264 263 278 275 280 284 286 288 287 293 289 281 281 286 288 276 260 249 266 270 276 253 265 274 305 123 324 295 308 316 322 347 329 339 334 344 339 336 342 348
258 250 242 245 260 273 266 273 281 277 283 285 284 283 284 287 285 278 279 277 281 285 285 297 299 272 279 289 324 132 275 288 301 290 310 312 325 332 334 333 337 344 346 343
271 260 251 251 252 275 284 293 288 281 281 287 289 286 286 282 280 276 253 248 274 294 288 277 276 285 280 301 134 187 230 254 272 273 286 308 315 325 321 322 331 342 339 341
274 257 256 253 270 278 302 293 278 298 301 295 287 286 283 276 275 283 289 284 289 286 284 238 281 286 315 107 163 217 251 243 251 255 258 287 298 303 317 324 338 335 341 344
289 291 329 336 322 303 302 299 314 305 296 289 282 280 284 294 291 263 275 301 310 304 284 281 282 290 124 172 221 238 249 253 253 255 262 323 293 307 316 326 330 322 338 348
15 349 325 332 317 320 313 310 308 303 304 299 294 298 293 276 251 287 285 283 303 308 302 314 304 306 15 219 237 234 236 239 251 252 247 258 281 301 306 311 311 304 340 325
356 333 333 20 338 321 301 296 282 296 294 309 300 292 286 278 286 308 293 296 323 306 322 308 292 282 278 274 256 254 248 249 265 290 258 232 247 270 280 296 295 294 288 302
355 351 357 339 320 314 298 295 343 307 312 300 287 294 320 306 292 304 316 312 295 297 299 296 286 292 279 265 262 247 240 238 256 225 235 221 218 229 241 261 278 289 293 297